Jacksonville, FL

6:49 PM EST on January 23, 2017 (GMT -0500)
Craig Municipal

Weather History for KCRG - November, 2011

Change the Weather History Date:

Monday, November 7, 2011

  Actual Average Record
Temperature  
Mean Temperature 67 °F -  
Max Temperature 70 °F 73 °F 84 °F (2003)
Min Temperature 64 °F 55 °F 42 °F (2001)
Cooling Degree Days 2    
Growing Degree Days 17 (Base 50)    
Moisture  
Dew Point 63 °F    
Average Humidity 90    
Maximum Humidity 100    
Minimum Humidity 81    
Precipitation  
Precipitation 0.13 in - - ()
Sea Level Pressure  
Sea Level Pressure 30.23 in    
Wind  
Wind Speed 10 mph (NNE)    
Max Wind Speed 15 mph    
Max Gust Speed 23 mph    
Visibility 7 miles    
Events Rain    
Averages and records for this station are not official NWS values.
T = Trace of Precipitation, MM = Missing Value Source: NWS Daily Summary

Daily Weather History Graph

Daily Weather History Graph

Search for Another Location

Airport or City:

Trip Planner

Search our weather history database for the weather conditions in past years. The results will help you decide how hot, cold, wet, or windy it might be!

Date:

Astronomy

Nov. 07, 2011 Rise Set
Actual Time 6:44 AM EST 5:34 PM EST
Civil Twilight 6:19 AM EST 5:59 PM EST
Nautical Twilight 5:51 AM EST 6:27 PM EST
Astronomical Twilight 5:22 AM EST 6:56 PM EST
Moon 3:37 PM EST (11/7) 3:55 AM EST (11/7)
Length of Visible Light 11h 39m
Length of Day
10h 49m
Waxing Gibbous, 91% of the Moon is Illuminated
Nov 7
Waxing Gibbous
Nov 10
Full
Nov 18
Last Quarter
Nov 25
New
Dec 2
First Quarter

Hourly Weather History & Observations

Time (EST) Temp. Dew Point Humidity Pressure Visibility Wind Dir Wind Speed Gust Speed Precip Events Conditions
12:53 AM 66.0 °F 63.0 °F 90% 30.24 in 7.0 mi NNE 12.7 mph 18.4 mph N/A   Overcast
1:06 AM 64.4 °F 62.6 °F 94% 30.24 in 2.5 mi NNE 10.4 mph - 0.03 in Rain Rain
1:18 AM 64.4 °F 62.6 °F 94% 30.24 in 2.5 mi North 9.2 mph - 0.05 in Rain Light Rain
1:25 AM 64.4 °F 62.6 °F 94% 30.24 in 6.0 mi NNE 6.9 mph - 0.05 in Rain Light Rain
1:53 AM 64.9 °F 63.0 °F 93% 30.23 in 8.0 mi North 8.1 mph - 0.05 in   Overcast
3:53 AM 64.0 °F 62.1 °F 93% 30.22 in 8.0 mi NNE 8.1 mph - 0.00 in   Overcast
4:53 AM 64.0 °F 62.1 °F 93% 30.23 in 9.0 mi North 8.1 mph - 0.02 in   Overcast
5:44 AM 64.4 °F 62.6 °F 94% 30.23 in 9.0 mi NNE 5.8 mph - 0.00 in   Overcast
5:53 AM 64.9 °F 63.0 °F 93% 30.24 in 8.0 mi NNE 10.4 mph - 0.00 in   Overcast
6:24 AM 66.2 °F 64.4 °F 94% 30.24 in 2.5 mi NNE 8.1 mph - 0.02 in Rain Light Rain
6:34 AM 64.4 °F 64.4 °F 100% 30.24 in 3.0 mi NNE 8.1 mph - 0.03 in Rain Light Rain
6:45 AM 64.4 °F 62.6 °F 94% 30.24 in 2.5 mi NNE 8.1 mph - 0.04 in Rain Light Rain
6:53 AM 64.9 °F 63.0 °F 93% 30.25 in 5.0 mi NNE 9.2 mph - 0.04 in Rain Light Rain
7:53 AM 64.9 °F 63.0 °F 93% 30.25 in 8.0 mi NNE 11.5 mph 20.7 mph 0.00 in   Overcast
8:33 AM 66.2 °F 62.6 °F 88% 30.26 in 2.0 mi NNE 11.5 mph - 0.00 in Rain Light Rain
8:53 AM 66.0 °F 63.0 °F 90% 30.27 in 1.5 mi NNE 10.4 mph 17.3 mph 0.01 in Rain Light Rain
9:03 AM 64.4 °F 62.6 °F 94% 30.27 in 2.5 mi NNE 10.4 mph - 0.00 in Rain Light Rain
9:10 AM 66.2 °F 62.6 °F 88% 30.27 in 4.0 mi NNE 8.1 mph - 0.00 in   Overcast
9:53 AM 66.0 °F 64.0 °F 93% 30.27 in 6.0 mi NNE 9.2 mph - 0.01 in   Overcast
10:24 AM 66.2 °F 64.4 °F 94% 30.27 in 2.0 mi North 8.1 mph - 0.00 in Rain Light Rain
11:37 AM 69.8 °F 64.4 °F 83% 30.25 in 10.0 mi NNE 13.8 mph 20.7 mph 0.00 in   Mostly Cloudy
11:53 AM 69.1 °F 64.9 °F 87% 30.25 in 10.0 mi NE 15.0 mph 23.0 mph 0.00 in   Mostly Cloudy
12:53 PM 70.0 °F 64.9 °F 84% 30.22 in 7.0 mi NNE 12.7 mph - 0.00 in   Overcast
1:28 PM 69.8 °F 64.4 °F 83% 30.21 in 8.0 mi NNE 11.5 mph 21.9 mph N/A   Overcast
1:53 PM 69.1 °F 64.0 °F 84% 30.20 in 9.0 mi NNE 11.5 mph - 0.00 in   Overcast
2:53 PM 70.0 °F 64.0 °F 81% 30.19 in 10.0 mi NNE 11.5 mph - N/A   Overcast
4:32 PM 68.0 °F 64.4 °F 88% 30.18 in 8.0 mi NNE 9.2 mph - N/A   Overcast
4:43 PM 68.0 °F 64.4 °F 88% 30.18 in 8.0 mi NNE 10.4 mph 19.6 mph N/A   Mostly Cloudy
4:53 PM 68.0 °F 64.0 °F 87% 30.18 in 8.0 mi NE 9.2 mph - N/A   Overcast
5:21 PM 68.0 °F 64.4 °F 88% 30.18 in 9.0 mi NNE 8.1 mph - N/A   Mostly Cloudy
5:53 PM 66.9 °F 63.0 °F 87% 30.19 in 10.0 mi NNE 9.2 mph - N/A   Mostly Cloudy
6:53 PM 66.9 °F 63.0 °F 87% 30.20 in 9.0 mi NNE 8.1 mph - 0.00 in   Overcast
7:53 PM 66.0 °F 62.1 °F 87% 30.21 in 10.0 mi NNE 8.1 mph - N/A   Partly Cloudy
8:53 PM 66.0 °F 63.0 °F 90% 30.21 in 10.0 mi NNE 5.8 mph - N/A   Mostly Cloudy
9:53 PM 66.9 °F 63.0 °F 87% 30.20 in 10.0 mi NNE 9.2 mph - N/A   Overcast
10:53 PM 66.9 °F 63.0 °F 87% 30.19 in 10.0 mi NNE 5.8 mph - N/A   Scattered Clouds
11:53 PM 66.9 °F 63.0 °F 87% 30.17 in 10.0 mi NNE 5.8 mph - N/A   Overcast